| time (UTC) | temp F | wind direction | speed MPH | gust MPH | rain 1hr in | rain 24hr in | rain mn in | humidity % | barometer mb |
| 20260505193019 | 57 | 334 | 3.0 | 5.0 | 0.00 | 0.03 | 0.02 | 82 | 1011.1 |
| 20260505192013 | 57 | 330 | 3.0 | 5.0 | 0.00 | 0.03 | 0.02 | 82 | 1011.1 |
| 20260505191015 | 57 | 336 | 2.0 | 6.0 | 0.00 | 0.03 | 0.02 | 82 | 1011.2 |
| 20260505190016 | 57 | 330 | 4.0 | 7.0 | 0.00 | 0.03 | 0.02 | 81 | 1011.1 |
| 20260505184013 | 58 | 331 | 2.0 | 4.0 | 0.00 | 0.04 | 0.02 | 81 | 1011.1 |
| 20260505183014 | 59 | 331 | 2.0 | 4.0 | 0.00 | 0.05 | 0.02 | 81 | 1011.0 |
| 20260505182014 | 59 | 331 | 1.0 | 3.0 | 0.00 | 0.06 | 0.02 | 81 | 1011.1 |
| 20260505181014 | 60 | 0 | 0.0 | 0.0 | 0.00 | 0.09 | 0.02 | 81 | 1011.3 |
| 20260505180015 | 60 | 330 | 0.0 | 2.0 | 0.00 | 0.21 | 0.02 | 81 | 1011.0 |
| 20260505175013 | 60 | 330 | 1.0 | 3.0 | 0.00 | 0.21 | 0.02 | 80 | 1011.0 |
| 20260505174014 | 60 | 331 | 1.0 | 4.0 | 0.00 | 0.21 | 0.02 | 79 | 1011.0 |
| 20260505172014 | 59 | 100 | 0.0 | 2.0 | 0.01 | 0.21 | 0.02 | 78 | 1011.1 |
| 20260505170014 | 59 | 48 | 2.0 | 6.0 | 0.02 | 0.21 | 0.02 | 80 | 1011.0 |
| 20260505165014 | 59 | 6 | 1.0 | 3.0 | 0.02 | 0.21 | 0.02 | 81 | 1011.0 |
| 20260505164014 | 59 | 6 | 2.0 | 4.0 | 0.02 | 0.21 | 0.02 | 81 | 1010.9 |
| 20260505163014 | 60 | 6 | 1.0 | 3.0 | 0.02 | 0.21 | 0.02 | 80 | 1011.1 |
| 20260505162012 | 60 | 348 | 2.0 | 4.0 | 0.01 | 0.20 | 0.01 | 79 | 1011.2 |
| 20260505161013 | 62 | 21 | 3.0 | 10.0 | 0.00 | 0.19 | 0.00 | 76 | 1011.1 |
| 20260505153014 | 63 | 179 | 5.0 | 10.0 | 0.00 | 0.19 | 0.00 | 73 | 1010.8 |
| 20260505152012 | 63 | 174 | 4.0 | 10.0 | 0.00 | 0.19 | 0.00 | 72 | 1010.9 |
| 20260505125013 | 67 | 129 | 5.0 | 11.0 | 0.00 | 0.20 | 0.00 | 64 | 1011.0 |
| 20260505124013 | 67 | 170 | 7.0 | 12.0 | 0.00 | 0.20 | 0.00 | 66 | 1011.1 |
| 20260505123012 | 66 | 144 | 7.0 | 13.0 | 0.00 | 0.20 | 0.00 | 66 | 1011.2 |
| 20260505122013 | 66 | 144 | 8.0 | 14.0 | 0.00 | 0.20 | 0.00 | 67 | 1011.2 |
| 20260505121013 | 66 | 137 | 6.0 | 12.0 | 0.00 | 0.20 | 0.00 | 67 | 1011.3 |
| 20260505120013 | 66 | 108 | 4.0 | 10.0 | 0.00 | 0.20 | 0.00 | 66 | 1011.4 |
| 20260505115013 | 65 | 121 | 3.0 | 8.0 | 0.00 | 0.20 | 0.00 | 67 | 1011.5 |
| 20260505113013 | 65 | 147 | 1.0 | 4.0 | 0.00 | 0.20 | 0.00 | 68 | 1011.7 |
| 20260505112013 | 64 | 187 | 2.0 | 5.0 | 0.00 | 0.20 | 0.00 | 69 | 1011.9 |
| 20260505111011 | 64 | 119 | 3.0 | 8.0 | 0.00 | 0.20 | 0.00 | 67 | 1012.2 |
| 20260505102013 | 64 | 174 | 1.0 | 6.0 | 0.00 | 0.20 | 0.00 | 72 | 1012.3 |
| 20260505101013 | 63 | 137 | 3.0 | 7.0 | 0.00 | 0.20 | 0.00 | 71 | 1012.3 |
| 20260505094013 | 62 | 167 | 2.0 | 6.0 | 0.00 | 0.20 | 0.00 | 70 | 1012.3 |
| 20260505093013 | 62 | 178 | 2.0 | 7.0 | 0.00 | 0.20 | 0.00 | 70 | 1012.4 |
| 20260505092013 | 61 | 192 | 2.0 | 7.0 | 0.00 | 0.20 | 0.00 | 70 | 1012.3 |
| 20260505091014 | 60 | 202 | 2.0 | 6.0 | 0.00 | 0.20 | 0.00 | 72 | 1012.4 |
| 20260505090013 | 60 | 217 | 3.0 | 6.0 | 0.00 | 0.20 | 0.00 | 71 | 1012.4 |
| 20260505085012 | 59 | 193 | 3.0 | 6.0 | 0.00 | 0.20 | 0.00 | 75 | 1012.3 |
| 20260505084012 | 59 | 212 | 3.0 | 8.0 | 0.00 | 0.20 | 0.00 | 74 | 1012.3 |
| 20260505082013 | 59 | 199 | 4.0 | 7.0 | 0.00 | 0.20 | 0.00 | 73 | 1012.4 |
| 20260505081013 | 60 | 190 | 3.0 | 7.0 | 0.00 | 0.20 | 0.00 | 74 | 1012.4 |
| 20260505080014 | 59 | 184 | 4.0 | 9.0 | 0.00 | 0.20 | 0.00 | 75 | 1012.4 |
| 20260505075012 | 59 | 197 | 3.0 | 6.0 | 0.00 | 0.20 | 0.00 | 73 | 1012.1 |
| 20260505074014 | 59 | 307 | 1.0 | 4.0 | 0.00 | 0.20 | 0.00 | 73 | 1011.9 |
| 20260505073012 | 59 | 307 | 0.0 | 4.0 | 0.00 | 0.20 | 0.00 | 74 | 1011.9 |
| 20260505072013 | 58 | 307 | 1.0 | 3.0 | 0.00 | 0.20 | 0.00 | 75 | 1011.9 |
| 20260505071013 | 57 | 307 | 0.0 | 2.0 | 0.00 | 0.20 | 0.00 | 77 | 1012.1 |
| 20260505065013 | 56 | 307 | 1.0 | 4.0 | 0.00 | 0.20 | 0.00 | 78 | 1012.3 |
| 20260505064013 | 56 | 0 | 0.0 | 0.0 | 0.00 | 0.20 | 0.00 | 80 | 1012.2 |
| 20260505063013 | 55 | 0 | 0.0 | 0.0 | 0.00 | 0.20 | 0.00 | 80 | 1012.0 |
| 20260505062012 | 54 | 0 | 0.0 | 0.0 | 0.00 | 0.20 | 0.00 | 81 | 1012.0 |
| 20260505061014 | 54 | 347 | 2.0 | 4.0 | 0.00 | 0.20 | 0.00 | 81 | 1012.0 |
| 20260505060015 | 53 | 347 | 3.0 | 5.0 | 0.00 | 0.20 | 0.00 | 82 | 1012.1 |
| 20260505055013 | 52 | 347 | 3.0 | 5.0 | 0.00 | 0.20 | 0.00 | 81 | 1012.1 |
| 20260505054012 | 52 | 348 | 2.0 | 4.0 | 0.00 | 0.20 | 0.00 | 80 | 1012.3 |
| 20260505053013 | 53 | 347 | 1.0 | 2.0 | 0.00 | 0.20 | 0.00 | 80 | 1012.1 |
| 20260505052014 | 53 | 348 | 1.0 | 3.0 | 0.00 | 0.20 | 0.00 | 80 | 1012.2 |
| 20260505051013 | 53 | 347 | 1.0 | 3.0 | 0.00 | 0.20 | 0.00 | 81 | 1012.0 |
| 20260505041013 | 51 | 1 | 4.0 | 6.0 | 0.00 | 0.20 | 0.00 | 83 | 1012.3 |
| 20260505040017 | 51 | 1 | 3.0 | 5.0 | 0.00 | 0.20 | 0.00 | 84 | 1012.5 |
| 20260505035013 | 51 | 1 | 3.0 | 5.0 | 0.00 | 0.20 | 0.00 | 84 | 1012.6 |
| 20260505034014 | 51 | 1 | 1.0 | 4.0 | 0.00 | 0.20 | 0.00 | 85 | 1012.2 |
| 20260505033013 | 51 | 1 | 3.0 | 5.0 | 0.00 | 0.20 | 0.00 | 85 | 1012.1 |
| 20260505032012 | 50 | 1 | 4.0 | 5.0 | 0.00 | 0.20 | 0.00 | 84 | 1012.3 |
| 20260505031013 | 50 | 1 | 4.0 | 5.0 | 0.00 | 0.20 | 0.00 | 84 | 1012.2 |
| 20260505030019 | 50 | 1 | 3.0 | 5.0 | 0.00 | 0.20 | 0.00 | 83 | 1012.5 |
| 20260505025013 | 50 | 1 | 3.0 | 5.0 | 0.00 | 0.20 | 0.00 | 83 | 1012.4 |
| 20260505024013 | 51 | 1 | 3.0 | 4.0 | 0.00 | 0.20 | 0.00 | 83 | 1012.5 |
| 20260505021011 | 51 | 1 | 3.0 | 5.0 | 0.00 | 0.20 | 0.00 | 83 | 1012.4 |
| 20260505020016 | 51 | 1 | 3.0 | 5.0 | 0.00 | 0.20 | 0.00 | 82 | 1012.3 |
| 20260505015015 | 52 | 1 | 3.0 | 4.0 | 0.00 | 0.20 | 0.00 | 82 | 1012.3 |
| 20260505014013 | 52 | 1 | 3.0 | 6.0 | 0.00 | 0.20 | 0.00 | 83 | 1012.3 |
| 20260505013014 | 52 | 1 | 2.0 | 3.0 | 0.00 | 0.20 | 0.00 | 82 | 1012.3 |
| 20260505011016 | 51 | 1 | 4.0 | 5.0 | 0.00 | 0.20 | 0.00 | 83 | 1012.4 |
| 20260505010014 | 52 | 1 | 3.0 | 4.0 | 0.00 | 0.20 | 0.00 | 82 | 1012.5 |
| 20260505005014 | 52 | 1 | 3.0 | 4.0 | 0.00 | 0.20 | 0.00 | 82 | 1012.5 |
| 20260505004013 | 53 | 1 | 3.0 | 4.0 | 0.00 | 0.20 | 0.00 | 80 | 1012.5 |
| 20260505002012 | 53 | 1 | 3.0 | 5.0 | 0.00 | 0.20 | 0.00 | 81 | 1012.5 |
| 20260505001014 | 53 | 1 | 2.0 | 4.0 | 0.00 | 0.20 | 0.00 | 82 | 1012.6 |
| 20260505000021 | 53 | 1 | 3.0 | 4.0 | 0.00 | 0.20 | 0.00 | 82 | 1012.6 |
| 20260504235013 | 53 | 1 | 3.0 | 4.0 | 0.00 | 0.20 | 0.20 | 82 | 1012.7 |
| 20260504234014 | 53 | 1 | 2.0 | 4.0 | 0.00 | 0.20 | 0.20 | 81 | 1012.7 |
| 20260504233013 | 53 | 1 | 3.0 | 5.0 | 0.00 | 0.20 | 0.20 | 80 | 1012.9 |
| 20260504232013 | 54 | 1 | 3.0 | 6.0 | 0.00 | 0.20 | 0.20 | 79 | 1012.8 |
| 20260504231014 | 54 | 1 | 1.0 | 3.0 | 0.00 | 0.20 | 0.20 | 79 | 1012.8 |
| 20260504225014 | 55 | 2 | 4.0 | 8.0 | 0.00 | 0.20 | 0.20 | 80 | 1012.8 |
| 20260504224012 | 54 | 3 | 4.0 | 10.0 | 0.00 | 0.20 | 0.20 | 81 | 1012.7 |
| 20260504222014 | 53 | 343 | 2.0 | 6.0 | 0.00 | 0.20 | 0.20 | 85 | 1012.8 |
| 20260504221013 | 52 | 335 | 4.0 | 8.0 | 0.00 | 0.20 | 0.20 | 86 | 1012.8 |
| 20260504220016 | 52 | 317 | 4.0 | 7.0 | 0.00 | 0.20 | 0.20 | 86 | 1012.9 |
| 20260504215013 | 52 | 329 | 5.0 | 8.0 | 0.00 | 0.20 | 0.20 | 86 | 1012.9 |
| 20260504214018 | 52 | 341 | 4.0 | 6.0 | 0.00 | 0.20 | 0.20 | 86 | 1013.0 |
| 20260504213012 | 52 | 337 | 2.0 | 5.0 | 0.00 | 0.20 | 0.20 | 86 | 1013.0 |
| 20260504212013 | 52 | 338 | 2.0 | 5.0 | 0.00 | 0.20 | 0.20 | 87 | 1013.0 |
| 20260504211012 | 52 | 338 | 3.0 | 5.0 | 0.00 | 0.20 | 0.20 | 87 | 1013.1 |
| 20260504210013 | 52 | 337 | 3.0 | 5.0 | 0.00 | 0.20 | 0.20 | 87 | 1013.1 |
| 20260504205013 | 53 | 347 | 4.0 | 6.0 | 0.00 | 0.20 | 0.20 | 87 | 1013.0 |
| 20260504203014 | 53 | 335 | 3.0 | 5.0 | 0.01 | 0.20 | 0.20 | 86 | 1012.9 |
| 20260504202015 | 54 | 327 | 4.0 | 5.0 | 0.01 | 0.20 | 0.20 | 86 | 1012.7 |
| 20260504201013 | 54 | 321 | 1.0 | 4.0 | 0.01 | 0.20 | 0.20 | 85 | 1012.8 |
| 20260504194015 | 56 | 31 | 0.0 | 3.0 | 0.02 | 0.20 | 0.20 | 84 | 1012.4 |